| time (UTC) | temp F | wind direction | speed MPH | gust MPH | rain 1hr in | rain 24hr in | rain mn in | humidity % | barometer mb |
| 20260503005824 | 66 | 295 | 3.0 | 8.0 | 0.00 | 0.00 | 0.00 | 66 | 1006.1 |
| 20260503005320 | 66 | 319 | 3.0 | 8.0 | 0.00 | 0.00 | 0.00 | 65 | 1006.1 |
| 20260503004821 | 66 | 321 | 3.0 | 8.0 | 0.00 | 0.00 | 0.00 | 65 | 1006.1 |
| 20260503004322 | 67 | 350 | 3.0 | 8.0 | 0.00 | 0.00 | 0.00 | 65 | 1006.2 |
| 20260503003820 | 67 | 329 | 3.0 | 7.0 | 0.00 | 0.00 | 0.00 | 66 | 1006.2 |
| 20260503001813 | 68 | 343 | 3.0 | 8.0 | 0.00 | 0.00 | 0.00 | 63 | 1006.2 |
| 20260503001309 | 68 | 327 | 3.0 | 7.0 | 0.00 | 0.00 | 0.00 | 63 | 1006.1 |
| 20260503000812 | 68 | 355 | 3.0 | 6.0 | 0.00 | 0.00 | 0.00 | 64 | 1006.1 |
| 20260503000307 | 68 | 339 | 3.0 | 6.0 | 0.00 | 0.00 | 0.00 | 64 | 1006.1 |
| 20260502235804 | 68 | 330 | 3.0 | 6.0 | 0.00 | 0.00 | 0.00 | 65 | 1006.2 |
| 20260502235259 | 68 | 284 | 3.0 | 7.0 | 0.00 | 0.00 | 0.00 | 65 | 1006.2 |
| 20260502234801 | 68 | 288 | 3.0 | 7.0 | 0.00 | 0.00 | 0.00 | 63 | 1006.2 |
| 20260502234259 | 69 | 22 | 3.0 | 7.0 | 0.00 | 0.00 | 0.00 | 63 | 1006.4 |
| 20260502233256 | 69 | 338 | 3.0 | 8.0 | 0.00 | 0.00 | 0.00 | 63 | 1006.4 |
| 20260502232757 | 69 | 317 | 3.0 | 6.0 | 0.00 | 0.00 | 0.00 | 63 | 1006.5 |
| 20260502232255 | 69 | 355 | 3.0 | 8.0 | 0.00 | 0.00 | 0.00 | 63 | 1006.5 |
| 20260502231800 | 69 | 5 | 3.0 | 8.0 | 0.00 | 0.00 | 0.00 | 64 | 1006.5 |
| 20260502231251 | 69 | 335 | 3.0 | 10.0 | 0.00 | 0.00 | 0.00 | 64 | 1006.5 |
| 20260502230752 | 69 | 335 | 3.0 | 10.0 | 0.00 | 0.00 | 0.00 | 64 | 1006.5 |
| 20260502230249 | 69 | 346 | 3.0 | 8.0 | 0.00 | 0.00 | 0.00 | 64 | 1006.5 |
| 20260502225749 | 69 | 313 | 3.0 | 9.0 | 0.00 | 0.00 | 0.00 | 65 | 1006.8 |
| 20260502224747 | 68 | 270 | 3.0 | 8.0 | 0.00 | 0.00 | 0.00 | 66 | 1006.8 |
| 20260502224248 | 69 | 331 | 3.0 | 7.0 | 0.00 | 0.00 | 0.00 | 65 | 1007.0 |
| 20260502223755 | 69 | 332 | 3.0 | 6.0 | 0.00 | 0.00 | 0.00 | 64 | 1007.0 |
| 20260502223246 | 69 | 332 | 3.0 | 6.0 | 0.00 | 0.00 | 0.00 | 63 | 1007.0 |
| 20260502222744 | 69 | 333 | 3.0 | 8.0 | 0.00 | 0.00 | 0.00 | 64 | 1007.4 |
| 20260502222240 | 69 | 344 | 2.0 | 8.0 | 0.00 | 0.00 | 0.00 | 65 | 1007.4 |
| 20260502221743 | 68 | 284 | 3.0 | 7.0 | 0.00 | 0.00 | 0.00 | 67 | 1007.4 |
| 20260502221237 | 67 | 284 | 3.0 | 8.0 | 0.00 | 0.00 | 0.00 | 68 | 1007.5 |
| 20260502220739 | 68 | 285 | 2.0 | 6.0 | 0.00 | 0.00 | 0.00 | 66 | 1007.5 |
| 20260502220236 | 68 | 286 | 1.0 | 5.0 | 0.00 | 0.00 | 0.00 | 66 | 1007.5 |
| 20260502215742 | 68 | 286 | 2.0 | 5.0 | 0.00 | 0.00 | 0.00 | 67 | 1007.9 |
| 20260502215237 | 67 | 286 | 2.0 | 5.0 | 0.00 | 0.00 | 0.00 | 69 | 1007.9 |
| 20260502214735 | 67 | 284 | 1.0 | 5.0 | 0.00 | 0.00 | 0.00 | 69 | 1007.9 |
| 20260502213732 | 67 | 284 | 1.0 | 4.0 | 0.00 | 0.00 | 0.00 | 69 | 1008.1 |
| 20260502213230 | 67 | 284 | 2.0 | 4.0 | 0.00 | 0.00 | 0.00 | 69 | 1008.1 |
| 20260502211730 | 65 | 259 | 1.0 | 5.0 | 0.00 | 0.00 | 0.00 | 73 | 1008.3 |
| 20260502211226 | 64 | 259 | 1.0 | 5.0 | 0.00 | 0.00 | 0.00 | 75 | 1008.6 |
| 20260502210725 | 63 | 257 | 1.0 | 4.0 | 0.00 | 0.00 | 0.00 | 76 | 1008.5 |
| 20260502210225 | 62 | 257 | 1.0 | 3.0 | 0.00 | 0.00 | 0.00 | 77 | 1008.5 |
| 20260502205720 | 62 | 256 | 1.0 | 6.0 | 0.00 | 0.00 | 0.00 | 77 | 1008.6 |
| 20260502205214 | 63 | 256 | 2.0 | 6.0 | 0.00 | 0.00 | 0.00 | 76 | 1008.6 |
| 20260502204714 | 63 | 355 | 1.0 | 4.0 | 0.00 | 0.00 | 0.00 | 74 | 1008.6 |
| 20260502204213 | 64 | 355 | 1.0 | 4.0 | 0.00 | 0.00 | 0.00 | 75 | 1008.9 |
| 20260502203713 | 63 | 355 | 1.0 | 5.0 | 0.00 | 0.00 | 0.00 | 75 | 1008.7 |
| 20260502202712 | 62 | 32 | 1.0 | 6.0 | 0.00 | 0.00 | 0.00 | 77 | 1009.1 |
| 20260502202205 | 62 | 288 | 1.0 | 3.0 | 0.00 | 0.00 | 0.00 | 78 | 1009.1 |
| 20260502201705 | 62 | 288 | 1.0 | 5.0 | 0.00 | 0.00 | 0.00 | 79 | 1009.1 |
| 20260502200701 | 61 | 288 | 2.0 | 5.0 | 0.00 | 0.00 | 0.00 | 80 | 1009.2 |
| 20260502195656 | 60 | 287 | 2.0 | 5.0 | 0.00 | 0.00 | 0.00 | 82 | 1009.6 |
| 20260502195201 | 59 | 287 | 3.0 | 6.0 | 0.00 | 0.00 | 0.00 | 82 | 1009.6 |
| 20260502194659 | 59 | 287 | 3.0 | 7.0 | 0.00 | 0.00 | 0.00 | 83 | 1009.6 |
| 20260502194151 | 59 | 287 | 2.0 | 7.0 | 0.00 | 0.00 | 0.00 | 81 | 1009.6 |
| 20260502193648 | 60 | 287 | 2.0 | 5.0 | 0.00 | 0.00 | 0.00 | 81 | 1009.6 |
| 20260502193147 | 60 | 287 | 2.0 | 5.0 | 0.00 | 0.00 | 0.00 | 81 | 1009.6 |
| 20260502192145 | 60 | 287 | 2.0 | 5.0 | 0.00 | 0.00 | 0.00 | 83 | 1009.7 |
| 20260502191641 | 59 | 287 | 2.0 | 5.0 | 0.00 | 0.00 | 0.00 | 83 | 1009.7 |
| 20260502191137 | 59 | 287 | 2.0 | 5.0 | 0.00 | 0.00 | 0.00 | 84 | 1010.0 |
| 20260502190638 | 59 | 287 | 2.0 | 5.0 | 0.00 | 0.00 | 0.00 | 84 | 1010.0 |
| 20260502190140 | 59 | 285 | 2.0 | 5.0 | 0.00 | 0.00 | 0.00 | 83 | 1010.0 |
| 20260502185631 | 59 | 332 | 2.0 | 3.0 | 0.00 | 0.00 | 0.00 | 84 | 1010.1 |
| 20260502185128 | 59 | 332 | 1.0 | 4.0 | 0.00 | 0.00 | 0.00 | 84 | 1010.1 |
| 20260502184125 | 59 | 333 | 2.0 | 5.0 | 0.00 | 0.00 | 0.00 | 84 | 1010.0 |
| 20260502183625 | 59 | 331 | 2.0 | 5.0 | 0.00 | 0.00 | 0.00 | 84 | 1010.0 |
| 20260502183123 | 59 | 350 | 2.0 | 4.0 | 0.00 | 0.00 | 0.00 | 85 | 1010.0 |
| 20260502182117 | 58 | 120 | 0.0 | 2.0 | 0.00 | 0.00 | 0.00 | 85 | 1010.1 |
| 20260502181610 | 58 | 121 | 0.0 | 0.0 | 0.00 | 0.00 | 0.00 | 86 | 1010.1 |
| 20260502181110 | 58 | 121 | 0.0 | 3.0 | 0.00 | 0.00 | 0.00 | 86 | 1010.1 |
| 20260502180109 | 58 | 121 | 0.0 | 3.0 | 0.00 | 0.00 | 0.00 | 86 | 1010.1 |
| 20260502164050 | 56 | 95 | 0.0 | 3.0 | 0.00 | 0.00 | 0.00 | 91 | 1009.5 |
| 20260502163546 | 55 | 95 | 0.0 | 5.0 | 0.00 | 0.00 | 0.00 | 91 | 1009.5 |
| 20260502163045 | 55 | 95 | 1.0 | 5.0 | 0.00 | 0.00 | 0.00 | 92 | 1009.5 |
| 20260502162547 | 55 | 223 | 1.0 | 4.0 | 0.00 | 0.00 | 0.00 | 92 | 1009.5 |
| 20260502162042 | 55 | 223 | 1.0 | 4.0 | 0.00 | 0.00 | 0.00 | 92 | 1009.5 |
| 20260502161541 | 55 | 157 | 0.0 | 4.0 | 0.00 | 0.00 | 0.00 | 92 | 1009.5 |
| 20260502161036 | 55 | 157 | 0.0 | 5.0 | 0.00 | 0.00 | 0.00 | 92 | 1009.3 |
| 20260502160540 | 55 | 156 | 0.0 | 5.0 | 0.00 | 0.00 | 0.00 | 92 | 1009.3 |
| 20260502152019 | 55 | 294 | 0.0 | 2.0 | 0.00 | 0.00 | 0.00 | 93 | 1009.1 |
| 20260502151514 | 55 | 295 | 0.0 | 1.0 | 0.00 | 0.00 | 0.00 | 93 | 1009.1 |
| 20260502130416 | 54 | 295 | 0.0 | 0.0 | 0.00 | 0.00 | 0.00 | 91 | 1008.5 |
| 20260502123357 | 54 | 295 | 0.0 | 0.0 | 0.00 | 0.00 | 0.00 | 91 | 1008.3 |
| 20260502122858 | 54 | 295 | 0.0 | 2.0 | 0.00 | 0.00 | 0.00 | 91 | 1008.2 |
| 20260502122356 | 54 | 295 | 0.0 | 2.0 | 0.00 | 0.00 | 0.00 | 91 | 1008.2 |
| 20260502121858 | 54 | 295 | 0.0 | 1.0 | 0.00 | 0.00 | 0.00 | 91 | 1008.2 |
| 20260502121356 | 54 | 295 | 0.0 | 1.0 | 0.00 | 0.00 | 0.00 | 91 | 1007.9 |
| 20260502120350 | 54 | 295 | 0.0 | 0.0 | 0.00 | 0.00 | 0.00 | 91 | 1007.9 |
| 20260502115846 | 54 | 295 | 0.0 | 0.0 | 0.00 | 0.00 | 0.00 | 91 | 1007.9 |
| 20260502115343 | 54 | 295 | 0.0 | 0.0 | 0.00 | 0.00 | 0.00 | 91 | 1007.9 |
| 20260502114845 | 54 | 295 | 0.0 | 0.0 | 0.00 | 0.00 | 0.00 | 91 | 1007.9 |
| 20260502113841 | 54 | 295 | 0.0 | 0.0 | 0.00 | 0.00 | 0.00 | 91 | 1007.9 |
| 20260502112835 | 54 | 295 | 0.0 | 2.0 | 0.00 | 0.00 | 0.00 | 90 | 1008.0 |
| 20260502112331 | 54 | 295 | 0.0 | 2.0 | 0.00 | 0.00 | 0.00 | 90 | 1008.0 |
| 20260502111835 | 54 | 295 | 0.0 | 2.0 | 0.00 | 0.00 | 0.00 | 90 | 1008.0 |
| 20260502111330 | 54 | 295 | 0.0 | 2.0 | 0.00 | 0.00 | 0.00 | 90 | 1008.0 |
| 20260502110826 | 54 | 295 | 0.0 | 2.0 | 0.00 | 0.00 | 0.00 | 90 | 1008.0 |
| 20260502110324 | 54 | 295 | 0.0 | 1.0 | 0.00 | 0.00 | 0.00 | 91 | 1008.0 |
| 20260502105822 | 54 | 295 | 0.0 | 1.0 | 0.00 | 0.00 | 0.00 | 90 | 1008.1 |
| 20260502105319 | 54 | 295 | 0.0 | 1.0 | 0.00 | 0.00 | 0.00 | 91 | 1008.1 |
| 20260502104822 | 54 | 295 | 0.0 | 1.0 | 0.00 | 0.00 | 0.00 | 90 | 1008.1 |
| 20260502104318 | 54 | 295 | 0.0 | 2.0 | 0.00 | 0.00 | 0.00 | 90 | 1007.9 |
| 20260502103808 | 54 | 295 | 0.0 | 2.0 | 0.00 | 0.00 | 0.00 | 90 | 1007.9 |
| 20260502103308 | 54 | 295 | 0.0 | 0.0 | 0.00 | 0.00 | 0.00 | 90 | 1007.9 |
| 20260502102310 | 54 | 295 | 0.0 | 2.0 | 0.00 | 0.00 | 0.00 | 91 | 1007.9 |
| 20260502101814 | 54 | 295 | 0.0 | 2.0 | 0.00 | 0.00 | 0.00 | 91 | 1007.9 |
| 20260502101312 | 54 | 295 | 1.0 | 3.0 | 0.00 | 0.00 | 0.00 | 90 | 1007.7 |
| 20260502100807 | 54 | 295 | 1.0 | 3.0 | 0.00 | 0.00 | 0.00 | 90 | 1007.7 |
| 20260502100302 | 54 | 295 | 0.0 | 3.0 | 0.00 | 0.00 | 0.00 | 91 | 1007.7 |
| 20260502091239 | 54 | 295 | 1.0 | 4.0 | 0.00 | 0.00 | 0.00 | 90 | 1008.3 |
| 20260502090739 | 55 | 295 | 1.0 | 4.0 | 0.00 | 0.00 | 0.00 | 90 | 1008.3 |
| 20260502090237 | 55 | 295 | 0.0 | 2.0 | 0.00 | 0.00 | 0.00 | 90 | 1008.3 |
| 20260502071203 | 55 | 342 | 1.0 | 4.0 | 0.00 | 0.00 | 0.00 | 89 | 1009.0 |
| 20260502070157 | 55 | 343 | 1.0 | 3.0 | 0.00 | 0.00 | 0.00 | 89 | 1009.0 |
| 20260502065654 | 55 | 343 | 1.0 | 4.0 | 0.00 | 0.00 | 0.00 | 89 | 1009.0 |
| 20260502065151 | 55 | 343 | 2.0 | 5.0 | 0.00 | 0.00 | 0.00 | 89 | 1009.0 |
| 20260502064650 | 56 | 344 | 1.0 | 5.0 | 0.00 | 0.00 | 0.00 | 89 | 1009.0 |
| 20260502064150 | 56 | 349 | 2.0 | 4.0 | 0.00 | 0.00 | 0.00 | 89 | 1009.2 |
| 20260502063647 | 56 | 349 | 1.0 | 5.0 | 0.00 | 0.00 | 0.00 | 89 | 1009.2 |
| 20260502063145 | 56 | 351 | 2.0 | 5.0 | 0.00 | 0.00 | 0.00 | 89 | 1009.3 |
| 20260502062143 | 56 | 355 | 2.0 | 5.0 | 0.00 | 0.00 | 0.00 | 89 | 1009.4 |
| 20260502061645 | 56 | 355 | 2.0 | 5.0 | 0.00 | 0.00 | 0.00 | 89 | 1009.4 |
| 20260502061137 | 56 | 355 | 1.0 | 4.0 | 0.00 | 0.00 | 0.00 | 89 | 1009.6 |
| 20260502060636 | 56 | 355 | 1.0 | 3.0 | 0.00 | 0.00 | 0.00 | 89 | 1009.6 |
| 20260502060134 | 56 | 355 | 1.0 | 3.0 | 0.00 | 0.00 | 0.00 | 89 | 1009.6 |
| 20260502055630 | 56 | 355 | 1.0 | 5.0 | 0.00 | 0.00 | 0.00 | 89 | 1009.6 |
| 20260502055131 | 56 | 355 | 1.0 | 5.0 | 0.00 | 0.00 | 0.00 | 89 | 1009.6 |
| 20260502054625 | 56 | 299 | 1.0 | 3.0 | 0.00 | 0.00 | 0.00 | 89 | 1009.6 |
| 20260502054124 | 56 | 299 | 1.0 | 4.0 | 0.00 | 0.00 | 0.00 | 88 | 1009.6 |
| 20260502053624 | 56 | 299 | 2.0 | 4.0 | 0.00 | 0.00 | 0.00 | 88 | 1009.6 |
| 20260502053126 | 56 | 291 | 1.0 | 4.0 | 0.00 | 0.00 | 0.00 | 88 | 1009.6 |
| 20260502052619 | 56 | 290 | 1.0 | 4.0 | 0.00 | 0.00 | 0.00 | 88 | 1009.6 |
| 20260502052116 | 56 | 290 | 1.0 | 4.0 | 0.00 | 0.00 | 0.00 | 88 | 1009.6 |
| 20260502051619 | 56 | 289 | 1.0 | 4.0 | 0.00 | 0.00 | 0.00 | 88 | 1009.6 |
| 20260502051119 | 56 | 284 | 1.0 | 6.0 | 0.00 | 0.00 | 0.00 | 88 | 1009.6 |
| 20260502050612 | 56 | 282 | 1.0 | 6.0 | 0.00 | 0.00 | 0.00 | 88 | 1009.6 |
| 20260502050112 | 56 | 327 | 2.0 | 5.0 | 0.00 | 0.00 | 0.00 | 88 | 1009.6 |
| 20260502045613 | 56 | 327 | 2.0 | 5.0 | 0.00 | 0.00 | 0.00 | 88 | 1009.6 |
| 20260502045110 | 56 | 328 | 2.0 | 5.0 | 0.00 | 0.00 | 0.00 | 88 | 1009.6 |
| 20260502044610 | 56 | 329 | 1.0 | 5.0 | 0.00 | 0.00 | 0.00 | 87 | 1009.6 |
| 20260502044110 | 56 | 330 | 1.0 | 5.0 | 0.00 | 0.00 | 0.00 | 87 | 1009.6 |
| 20260502043608 | 56 | 330 | 1.0 | 4.0 | 0.00 | 0.00 | 0.00 | 87 | 1009.6 |
| 20260502043110 | 56 | 331 | 1.0 | 5.0 | 0.00 | 0.00 | 0.00 | 87 | 1009.6 |
| 20260502042612 | 56 | 331 | 2.0 | 5.0 | 0.00 | 0.00 | 0.00 | 87 | 1009.6 |
| 20260502042108 | 56 | 331 | 2.0 | 5.0 | 0.00 | 0.00 | 0.00 | 87 | 1009.6 |
| 20260502041605 | 57 | 331 | 3.0 | 6.0 | 0.00 | 0.00 | 0.00 | 86 | 1009.6 |
| 20260502041104 | 57 | 331 | 2.0 | 6.0 | 0.00 | 0.00 | 0.00 | 86 | 1009.4 |
| 20260502040107 | 57 | 331 | 1.0 | 5.0 | 0.00 | 0.00 | 0.00 | 86 | 1009.4 |
| 20260502035604 | 57 | 332 | 1.0 | 4.0 | 0.00 | 0.00 | 0.00 | 86 | 1009.1 |
| 20260502035105 | 57 | 332 | 2.0 | 5.0 | 0.00 | 0.00 | 0.00 | 86 | 1009.1 |
| 20260502034604 | 57 | 332 | 2.0 | 5.0 | 0.00 | 0.00 | 0.00 | 86 | 1009.1 |
| 20260502034103 | 57 | 332 | 2.0 | 6.0 | 0.00 | 0.00 | 0.00 | 86 | 1009.0 |
| 20260502033559 | 57 | 332 | 2.0 | 6.0 | 0.00 | 0.00 | 0.00 | 86 | 1009.0 |
| 20260502033059 | 57 | 332 | 2.0 | 6.0 | 0.00 | 0.00 | 0.00 | 86 | 1009.0 |
| 20260502032557 | 57 | 332 | 2.0 | 6.0 | 0.00 | 0.00 | 0.00 | 85 | 1008.6 |
| 20260502032056 | 57 | 333 | 2.0 | 6.0 | 0.00 | 0.00 | 0.00 | 86 | 1008.6 |
| 20260502031556 | 57 | 335 | 2.0 | 6.0 | 0.00 | 0.00 | 0.00 | 85 | 1008.6 |
| 20260502031051 | 57 | 333 | 2.0 | 6.0 | 0.00 | 0.00 | 0.00 | 85 | 1008.5 |
| 20260502030549 | 57 | 334 | 3.0 | 6.0 | 0.00 | 0.00 | 0.00 | 85 | 1008.5 |
| 20260502030046 | 57 | 334 | 3.0 | 6.0 | 0.00 | 0.00 | 0.00 | 85 | 1008.5 |
| 20260502025550 | 57 | 333 | 2.0 | 6.0 | 0.00 | 0.00 | 0.00 | 85 | 1008.5 |
| 20260502024539 | 57 | 329 | 3.0 | 6.0 | 0.00 | 0.00 | 0.00 | 84 | 1008.5 |
| 20260502024038 | 58 | 329 | 2.0 | 6.0 | 0.00 | 0.00 | 0.00 | 84 | 1008.4 |
| 20260502023031 | 58 | 323 | 2.0 | 7.0 | 0.00 | 0.00 | 0.00 | 83 | 1008.4 |
| 20260502022530 | 58 | 323 | 3.0 | 7.0 | 0.00 | 0.00 | 0.00 | 82 | 1008.2 |
| 20260502022030 | 58 | 355 | 2.0 | 7.0 | 0.00 | 0.00 | 0.00 | 82 | 1008.2 |
| 20260502021526 | 58 | 330 | 3.0 | 6.0 | 0.00 | 0.00 | 0.00 | 81 | 1008.2 |
| 20260502021025 | 59 | 330 | 3.0 | 6.0 | 0.00 | 0.00 | 0.00 | 80 | 1008.0 |
| 20260502015518 | 60 | 335 | 4.0 | 8.0 | 0.00 | 0.00 | 0.00 | 78 | 1008.0 |
| 20260502015012 | 61 | 329 | 3.0 | 8.0 | 0.00 | 0.00 | 0.00 | 77 | 1008.0 |
| 20260502014508 | 61 | 326 | 3.0 | 7.0 | 0.00 | 0.00 | 0.00 | 77 | 1008.0 |
| 20260502014011 | 61 | 348 | 4.0 | 8.0 | 0.00 | 0.00 | 0.00 | 76 | 1008.0 |
| 20260502013509 | 62 | 339 | 4.0 | 8.0 | 0.00 | 0.00 | 0.00 | 76 | 1008.0 |
| 20260502013010 | 62 | 325 | 4.0 | 9.0 | 0.00 | 0.00 | 0.00 | 76 | 1008.0 |
| 20260502012507 | 62 | 24 | 4.0 | 9.0 | 0.00 | 0.00 | 0.00 | 75 | 1008.0 |
| 20260502012006 | 63 | 319 | 3.0 | 8.0 | 0.00 | 0.00 | 0.00 | 74 | 1008.0 |
| 20260502011506 | 63 | 335 | 4.0 | 8.0 | 0.00 | 0.00 | 0.00 | 74 | 1008.1 |
| 20260502011008 | 63 | 20 | 4.0 | 9.0 | 0.00 | 0.00 | 0.00 | 73 | 1008.0 |